This is the latest recevied weather packets stored in our database for station/object W8KHW. If no packets are shown the sender has not sent any weather packets the latest 1 day(s).
| Time | Temp. | Humidity | Pressure | Rain* | Wind** | Luminosity | Snow |
|---|---|---|---|---|---|---|---|
| 1778076029 | 10° C | 85% | 1011.6 hPa | 0 mm | - | - | - |
| 1778074028 | 8.33° C | 95% | 1011.3 hPa | 0 mm | - | - | - |
| 1778072027 | 7.78° C | 99% | 1011.4 hPa | 0 mm | - | - | - |
| 1778071527 | 7.22° C | 99% | 1011.4 hPa | 0 mm | - | - | - |
| 1778069526 | 7.78° C | 99% | 1010.3 hPa | 0 mm | - | - | - |
| 1778069026 | 7.78° C | 99% | 1010.4 hPa | 0 mm | - | - | - |
| 1778067525 | 7.78° C | 99% | 1010.6 hPa | 0 mm | - | - | - |
| 1778066525 | 7.78° C | 99% | 1009.8 hPa | 0 mm | - | - | - |
| 1778066025 | 7.78° C | 99% | 1008.9 hPa | 0 mm | - | - | - |
| 1778064524 | 7.78° C | 99% | 1009.1 hPa | 0.25 mm | - | - | - |
| 1778064024 | 7.78° C | 99% | 1009.2 hPa | 0 mm | - | - | - |
| 1778063024 | 7.78° C | 99% | 1009.1 hPa | 0.25 mm | - | - | - |
| 1778060523 | 7.78° C | 99% | 1008.2 hPa | 0.51 mm | - | - | - |
| 1778058022 | 7.78° C | 99% | 1007.9 hPa | 1.52 mm | - | - | - |
| 1778057522 | 7.78° C | 99% | 1008.2 hPa | 1.52 mm | - | - | - |
| 1778057022 | 7.78° C | 99% | 1008.3 hPa | 1.27 mm | - | - | - |
| 1778056522 | 7.78° C | 99% | 1008.7 hPa | 1.27 mm | - | - | - |
| 1778056022 | 7.78° C | 99% | 1008.4 hPa | 1.02 mm | - | - | - |
| 1778054521 | 7.78° C | 99% | 1008 hPa | 0.51 mm | - | - | - |
| 1778054021 | 7.78° C | 99% | 1007.8 hPa | 0.76 mm | - | - | - |
| 1778053521 | 7.78° C | 99% | 1007.8 hPa | 1.27 mm | - | - | - |
| 1778053021 | 7.78° C | 99% | 1007.7 hPa | 1.52 mm | - | - | - |
| 1778052020 | 7.78° C | 99% | 1007.8 hPa | 2.03 mm | - | - | - |
| 1778051520 | 8.33° C | 99% | 1007.8 hPa | 2.29 mm | - | - | - |
| 1778051020 | 8.33° C | 99% | 1007.5 hPa | 2.54 mm | - | - | - |
* Rain latest hour (hover to see other rain measurements)
** Current wind speed in m/s (hover to see current wind gust speed)